Time,TemperatureF,DewpointF,PressureIn,WindDirection,WindDirectionDegrees,WindSpeedMPH,WindSpeedGustMPH,Humidity,HourlyPrecipIn,Conditions,Clouds,dailyrainin,SoftwareType,DateUTC
2013-01-27 00:02:00,35.7,25.1,30.10,East,90,8.0,17.0,65,0.00,,,0.00,Weather View 32 v70,2013-01-27 06:02:00,
2013-01-27 00:07:00,35.6,25.4,30.10,SE,135,3.0,16.0,66,0.00,,,0.00,Weather View 32 v70,2013-01-27 06:07:00,
2013-01-27 00:12:00,35.4,25.2,30.10,SE,135,8.0,16.0,66,0.00,,,0.00,Weather View 32 v70,2013-01-27 06:12:00,
2013-01-27 00:17:00,35.3,25.1,30.10,SE,135,9.0,15.0,66,0.00,,,0.00,Weather View 32 v70,2013-01-27 06:17:00,
2013-01-27 00:22:00,35.3,25.1,30.10,ESE,112,9.0,17.0,66,0.00,,,0.00,Weather View 32 v70,2013-01-27 06:22:00,
2013-01-27 00:28:00,35.3,25.1,30.10,SE,135,8.0,17.0,66,0.00,,,0.00,Weather View 32 v70,2013-01-27 06:28:00,
2013-01-27 00:33:00,35.3,25.1,30.10,SE,135,7.0,17.0,66,0.00,,,0.00,Weather View 32 v70,2013-01-27 06:33:00,
2013-01-27 00:38:00,35.2,25.0,30.11,SE,135,6.0,17.0,66,0.00,,,0.00,Weather View 32 v70,2013-01-27 06:38:00,
2013-01-27 00:43:00,35.2,25.0,30.10,SE,135,7.0,17.0,66,0.00,,,0.00,Weather View 32 v70,2013-01-27 06:43:00,
2013-01-27 00:48:00,35.2,25.0,30.10,ESE,112,4.0,17.0,66,0.00,,,0.00,Weather View 32 v70,2013-01-27 06:48:00,
2013-01-27 00:53:00,35.2,25.0,30.10,ESE,112,7.0,17.0,66,0.00,,,0.00,Weather View 32 v70,2013-01-27 06:53:00,
2013-01-27 00:58:00,35.2,25.3,30.10,East,90,11.0,17.0,67,0.00,,,0.00,Weather View 32 v70,2013-01-27 06:58:00,
2013-01-27 01:03:00,35.2,25.3,30.09,ESE,112,4.0,17.0,67,0.00,,,0.00,Weather View 32 v70,2013-01-27 07:03:00,
2013-01-27 01:08:00,35.1,25.2,30.09,ESE,112,6.0,17.0,67,0.00,,,0.00,Weather View 32 v70,2013-01-27 07:08:00,
2013-01-27 01:13:00,35.1,25.2,30.08,SE,135,4.0,17.0,67,0.00,,,0.00,Weather View 32 v70,2013-01-27 07:13:00,
2013-01-27 01:18:00,35.0,25.1,30.08,SE,135,5.0,17.0,67,0.00,,,0.00,Weather View 32 v70,2013-01-27 07:18:00,
2013-01-27 01:23:00,34.9,25.0,30.08,East,90,6.0,16.0,67,0.00,,,0.00,Weather View 32 v70,2013-01-27 07:23:00,
2013-01-27 01:28:00,35.1,25.2,30.08,East,90,6.0,16.0,67,0.00,,,0.00,Weather View 32 v70,2013-01-27 07:28:00,
2013-01-27 01:33:00,35.1,25.2,30.08,ESE,112,6.0,16.0,67,0.00,,,0.00,Weather View 32 v70,2013-01-27 07:33:00,
2013-01-27 01:38:00,35.1,24.9,30.07,ESE,112,6.0,14.0,66,0.00,,,0.00,Weather View 32 v70,2013-01-27 07:38:00,
2013-01-27 01:43:00,35.2,25.0,30.07,SE,135,7.0,14.0,66,0.00,,,0.00,Weather View 32 v70,2013-01-27 07:43:00,
2013-01-27 01:48:00,35.2,25.0,30.07,ESE,112,9.0,16.0,66,0.00,,,0.00,Weather View 32 v70,2013-01-27 07:48:00,
2013-01-27 01:53:00,35.1,24.9,30.07,ESE,112,7.0,16.0,66,0.00,,,0.00,Weather View 32 v70,2013-01-27 07:53:00,
2013-01-27 01:58:00,35.2,25.0,30.07,SE,135,9.0,16.0,66,0.00,,,0.00,Weather View 32 v70,2013-01-27 07:58:00,
2013-01-27 02:03:00,35.2,25.0,30.07,ESE,112,7.0,16.0,66,0.00,,,0.00,Weather View 32 v70,2013-01-27 08:03:00,
2013-01-27 02:08:00,35.2,25.0,30.07,ESE,112,7.0,16.0,66,0.00,,,0.00,Weather View 32 v70,2013-01-27 08:08:00,
2013-01-27 02:13:00,35.2,25.0,30.06,ESE,112,9.0,16.0,66,0.00,,,0.00,Weather View 32 v70,2013-01-27 08:13:00,
2013-01-27 02:18:00,35.3,24.7,30.06,ESE,112,12.0,18.0,65,0.00,,,0.00,Weather View 32 v70,2013-01-27 08:18:00,
2013-01-27 02:23:00,35.4,25.2,30.06,ESE,112,6.0,18.0,66,0.00,,,0.00,Weather View 32 v70,2013-01-27 08:23:00,
2013-01-27 02:28:00,35.5,24.9,30.06,SE,135,7.0,18.0,65,0.00,,,0.00,Weather View 32 v70,2013-01-27 08:28:00,
2013-01-27 02:33:00,35.7,25.1,30.06,ESE,112,9.0,18.0,65,0.00,,,0.00,Weather View 32 v70,2013-01-27 08:33:00,
2013-01-27 02:38:00,35.8,25.2,30.06,ESE,112,9.0,18.0,65,0.00,,,0.00,Weather View 32 v70,2013-01-27 08:38:00,
2013-01-27 02:43:00,35.9,25.3,30.06,ESE,112,14.0,18.0,65,0.00,,,0.00,Weather View 32 v70,2013-01-27 08:43:00,
2013-01-27 02:48:00,35.9,25.3,30.06,East,90,6.0,18.0,65,0.00,,,0.00,Weather View 32 v70,2013-01-27 08:48:00,
2013-01-27 02:53:00,35.9,25.3,30.06,ESE,112,8.0,18.0,65,0.00,,,0.00,Weather View 32 v70,2013-01-27 08:53:00,
2013-01-27 02:58:00,35.9,25.3,30.06,ESE,112,6.0,18.0,65,0.00,,,0.00,Weather View 32 v70,2013-01-27 08:58:00,
2013-01-27 03:03:00,36.2,25.6,30.06,SE,135,7.0,18.0,65,0.00,,,0.00,Weather View 32 v70,2013-01-27 09:03:00,
2013-01-27 03:08:00,36.3,25.7,30.06,SE,135,10.0,18.0,65,0.00,,,0.00,Weather View 32 v70,2013-01-27 09:08:00,
2013-01-27 03:13:00,36.4,25.4,30.06,East,90,7.0,18.0,64,0.00,,,0.00,Weather View 32 v70,2013-01-27 09:13:00,
2013-01-27 03:18:00,36.5,25.5,30.06,SE,135,7.0,17.0,64,0.00,,,0.00,Weather View 32 v70,2013-01-27 09:18:00,
2013-01-27 03:23:00,36.6,25.6,30.06,ESE,112,13.0,17.0,64,0.00,,,0.00,Weather View 32 v70,2013-01-27 09:23:00,
2013-01-27 03:28:00,36.7,25.7,30.05,ESE,112,10.0,17.0,64,0.00,,,0.00,Weather View 32 v70,2013-01-27 09:28:00,
2013-01-27 03:33:00,36.7,25.7,30.05,ESE,112,7.0,17.0,64,0.00,,,0.00,Weather View 32 v70,2013-01-27 09:33:00,
2013-01-27 03:38:00,36.7,25.7,30.05,SE,135,6.0,17.0,64,0.00,,,0.00,Weather View 32 v70,2013-01-27 09:38:00,
2013-01-27 03:43:00,36.8,25.4,30.04,ESE,112,8.0,17.0,63,0.00,,,0.00,Weather View 32 v70,2013-01-27 09:43:00,
2013-01-27 03:48:00,36.9,25.5,30.04,ESE,112,4.0,17.0,63,0.00,,,0.00,Weather View 32 v70,2013-01-27 09:48:00,
2013-01-27 03:53:00,36.9,25.5,30.04,SE,135,8.0,17.0,63,0.00,,,0.00,Weather View 32 v70,2013-01-27 09:53:00,
2013-01-27 03:58:00,36.9,25.5,30.04,ESE,112,7.0,17.0,63,0.00,,,0.00,Weather View 32 v70,2013-01-27 09:58:00,
2013-01-27 04:03:00,36.9,25.5,30.04,ESE,112,15.0,17.0,63,0.00,,,0.00,Weather View 32 v70,2013-01-27 10:03:00,
2013-01-27 04:08:00,37.0,25.6,30.04,ESE,112,7.0,17.0,63,0.00,,,0.00,Weather View 32 v70,2013-01-27 10:08:00,
2013-01-27 04:13:00,37.0,25.6,30.04,ESE,112,6.0,15.0,63,0.00,,,0.00,Weather View 32 v70,2013-01-27 10:13:00,
2013-01-27 04:18:00,37.1,25.7,30.04,East,90,5.0,15.0,63,0.00,,,0.00,Weather View 32 v70,2013-01-27 10:18:00,
2013-01-27 04:23:00,37.1,25.7,30.04,ESE,112,7.0,15.0,63,0.00,,,0.00,Weather View 32 v70,2013-01-27 10:23:00,
2013-01-27 04:28:00,37.1,25.7,30.04,East,90,7.0,15.0,63,0.00,,,0.00,Weather View 32 v70,2013-01-27 10:28:00,
2013-01-27 04:33:00,37.1,25.7,30.04,ESE,112,2.0,15.0,63,0.00,,,0.00,Weather View 32 v70,2013-01-27 10:33:00,
2013-01-27 04:38:00,37.1,25.7,30.03,ESE,112,6.0,15.0,63,0.00,,,0.00,Weather View 32 v70,2013-01-27 10:38:00,
2013-01-27 04:43:00,37.2,25.8,30.03,East,90,5.0,15.0,63,0.00,,,0.00,Weather View 32 v70,2013-01-27 10:43:00,
2013-01-27 04:48:00,37.1,25.7,30.03,SE,135,5.0,15.0,63,0.00,,,0.00,Weather View 32 v70,2013-01-27 10:48:00,
2013-01-27 04:53:00,37.0,25.9,30.03,ESE,112,7.0,15.0,64,0.00,,,0.00,Weather View 32 v70,2013-01-27 10:53:00,
2013-01-27 04:58:00,36.9,25.8,30.03,ESE,112,7.0,15.0,64,0.00,,,0.00,Weather View 32 v70,2013-01-27 10:58:00,
2013-01-27 05:03:00,36.9,26.2,30.03,East,90,6.0,15.0,65,0.00,,,0.00,Weather View 32 v70,2013-01-27 11:03:00,
2013-01-27 05:08:00,36.9,26.2,30.03,ESE,112,9.0,12.0,65,0.00,,,0.00,Weather View 32 v70,2013-01-27 11:08:00,
2013-01-27 05:13:00,36.9,26.6,30.02,ESE,112,6.0,13.0,66,0.00,,,0.00,Weather View 32 v70,2013-01-27 11:13:00,
2013-01-27 05:18:00,36.6,27.4,30.02,ESE,112,9.0,13.0,69,0.00,,,0.00,Weather View 32 v70,2013-01-27 11:18:00,
2013-01-27 05:23:00,36.1,27.9,30.01,SE,135,7.0,14.0,72,0.00,,,0.00,Weather View 32 v70,2013-01-27 11:23:00,
2013-01-27 05:28:00,35.8,28.6,30.01,SE,135,7.0,14.0,75,0.00,,,0.00,Weather View 32 v70,2013-01-27 11:28:00,
2013-01-27 05:33:00,35.4,29.2,30.01,SE,135,8.0,14.0,78,0.01,,,0.01,Weather View 32 v70,2013-01-27 11:33:00,
2013-01-27 05:38:00,35.1,29.9,30.01,ESE,112,6.0,14.0,81,0.01,,,0.01,Weather View 32 v70,2013-01-27 11:38:00,
2013-01-27 05:43:00,34.9,30.0,30.01,ESE,112,6.0,14.0,82,0.01,,,0.01,Weather View 32 v70,2013-01-27 11:43:00,
2013-01-27 05:48:00,34.8,30.5,30.01,ESE,112,9.0,14.0,84,0.01,,,0.01,Weather View 32 v70,2013-01-27 11:48:00,
2013-01-27 05:53:00,34.6,30.6,30.01,SE,135,9.0,14.0,85,0.01,,,0.01,Weather View 32 v70,2013-01-27 11:53:00,
2013-01-27 05:58:00,34.3,30.8,30.01,ESE,112,7.0,14.0,87,0.02,,,0.02,Weather View 32 v70,2013-01-27 11:58:00,
2013-01-27 06:03:00,34.2,31.0,30.00,SE,135,4.0,14.0,88,0.02,,,0.02,Weather View 32 v70,2013-01-27 12:03:00,
2013-01-27 06:08:00,34.2,31.3,30.00,ESE,112,4.0,14.0,89,0.02,,,0.02,Weather View 32 v70,2013-01-27 12:08:00,
2013-01-27 06:13:00,34.1,31.2,30.00,SE,135,5.0,14.0,89,0.03,,,0.03,Weather View 32 v70,2013-01-27 12:13:00,
2013-01-27 06:18:00,34.1,31.5,30.00,ESE,112,3.0,14.0,90,0.03,,,0.03,Weather View 32 v70,2013-01-27 12:18:00,
2013-01-27 06:23:00,33.9,31.5,29.99,SE,135,8.0,14.0,91,0.03,,,0.03,Weather View 32 v70,2013-01-27 12:23:00,
2013-01-27 06:28:00,33.8,31.7,29.99,ESE,112,6.0,14.0,92,0.03,,,0.04,Weather View 32 v70,2013-01-27 12:28:00,
2013-01-27 06:33:00,33.8,32.0,29.99,ESE,112,4.0,14.0,93,0.03,,,0.04,Weather View 32 v70,2013-01-27 12:33:00,
2013-01-27 06:38:00,33.8,32.3,29.99,SE,135,3.0,14.0,94,0.03,,,0.04,Weather View 32 v70,2013-01-27 12:38:00,
2013-01-27 06:43:00,33.9,32.6,29.99,ESE,112,7.0,14.0,95,0.03,,,0.04,Weather View 32 v70,2013-01-27 12:43:00,
2013-01-27 06:48:00,34.1,32.8,29.99,ESE,112,11.0,14.0,95,0.03,,,0.04,Weather View 32 v70,2013-01-27 12:48:00,
2013-01-27 06:53:00,34.2,32.9,30.00,ESE,112,8.0,14.0,95,0.03,,,0.04,Weather View 32 v70,2013-01-27 12:53:00,
2013-01-27 06:59:00,34.1,32.8,29.99,SE,135,12.0,14.0,95,0.03,,,0.05,Weather View 32 v70,2013-01-27 12:59:00,
2013-01-27 07:04:00,34.1,32.8,29.99,SE,135,3.0,14.0,95,0.04,,,0.06,Weather View 32 v70,2013-01-27 13:04:00,
2013-01-27 07:09:00,34.1,32.8,29.99,ESE,112,4.0,14.0,95,0.04,,,0.06,Weather View 32 v70,2013-01-27 13:09:00,
2013-01-27 07:14:00,34.1,32.8,29.99,ESE,112,9.0,16.0,95,0.03,,,0.06,Weather View 32 v70,2013-01-27 13:14:00,
2013-01-27 07:19:00,34.1,32.8,29.98,SE,135,7.0,16.0,95,0.03,,,0.06,Weather View 32 v70,2013-01-27 13:19:00,
2013-01-27 07:24:00,34.1,32.8,29.98,SE,135,6.0,16.0,95,0.03,,,0.06,Weather View 32 v70,2013-01-27 13:24:00,
2013-01-27 07:29:00,34.1,32.8,29.98,ESE,112,9.0,17.0,95,0.02,,,0.06,Weather View 32 v70,2013-01-27 13:29:00,
2013-01-27 07:34:00,34.2,32.9,29.98,East,90,11.0,17.0,95,0.02,,,0.06,Weather View 32 v70,2013-01-27 13:34:00,
2013-01-27 07:39:00,34.2,32.9,29.98,SE,135,6.0,17.0,95,0.02,,,0.06,Weather View 32 v70,2013-01-27 13:39:00,
2013-01-27 07:44:00,34.2,32.9,29.99,SE,135,3.0,17.0,95,0.02,,,0.06,Weather View 32 v70,2013-01-27 13:44:00,
2013-01-27 07:49:00,34.2,32.9,29.98,SE,135,8.0,17.0,95,0.02,,,0.06,Weather View 32 v70,2013-01-27 13:49:00,
2013-01-27 07:54:00,34.2,32.9,29.98,ESE,112,7.0,17.0,95,0.01,,,0.06,Weather View 32 v70,2013-01-27 13:54:00,
2013-01-27 07:59:00,34.2,32.9,29.98,East,90,10.0,17.0,95,0.01,,,0.06,Weather View 32 v70,2013-01-27 13:59:00,
2013-01-27 08:04:00,34.2,32.9,29.98,SE,135,10.0,17.0,95,0.00,,,0.06,Weather View 32 v70,2013-01-27 14:04:00,
2013-01-27 08:09:00,34.2,32.9,29.98,ESE,112,10.0,17.0,95,0.00,,,0.06,Weather View 32 v70,2013-01-27 14:09:00,
2013-01-27 08:14:00,34.2,32.9,29.98,East,90,3.0,17.0,95,0.00,,,0.06,Weather View 32 v70,2013-01-27 14:14:00,
2013-01-27 08:19:00,34.2,32.9,29.98,SE,135,6.0,17.0,95,0.00,,,0.06,Weather View 32 v70,2013-01-27 14:19:00,
2013-01-27 08:24:00,34.2,32.9,29.98,ESE,112,9.0,17.0,95,0.00,,,0.06,Weather View 32 v70,2013-01-27 14:24:00,
2013-01-27 08:29:00,34.1,32.8,29.98,ESE,112,12.0,16.0,95,0.00,,,0.06,Weather View 32 v70,2013-01-27 14:29:00,
2013-01-27 08:34:00,34.1,32.8,29.98,ESE,112,6.0,17.0,95,0.00,,,0.06,Weather View 32 v70,2013-01-27 14:34:00,
2013-01-27 08:39:00,34.1,32.8,29.97,ESE,112,6.0,17.0,95,0.01,,,0.07,Weather View 32 v70,2013-01-27 14:39:00,
2013-01-27 08:44:00,34.1,32.8,29.98,SE,135,9.0,17.0,95,0.01,,,0.07,Weather View 32 v70,2013-01-27 14:44:00,
2013-01-27 08:49:00,34.0,32.7,29.98,ESE,112,8.0,17.0,95,0.02,,,0.08,Weather View 32 v70,2013-01-27 14:49:00,
2013-01-27 08:54:00,34.0,32.7,29.98,ESE,112,8.0,17.0,95,0.02,,,0.08,Weather View 32 v70,2013-01-27 14:54:00,
2013-01-27 08:59:00,34.0,32.7,29.98,ESE,112,7.0,17.0,95,0.02,,,0.08,Weather View 32 v70,2013-01-27 14:59:00,
2013-01-27 09:04:00,33.9,32.6,29.98,ESE,112,6.0,17.0,95,0.03,,,0.09,Weather View 32 v70,2013-01-27 15:04:00,
2013-01-27 09:09:00,34.0,32.7,29.97,SE,135,2.0,17.0,95,0.04,,,0.10,Weather View 32 v70,2013-01-27 15:09:00,
2013-01-27 09:14:00,34.1,32.8,29.97,SE,135,7.0,17.0,95,0.04,,,0.10,Weather View 32 v70,2013-01-27 15:14:00,
2013-01-27 09:19:00,34.1,32.8,29.97,ESE,112,5.0,17.0,95,0.04,,,0.10,Weather View 32 v70,2013-01-27 15:19:00,
2013-01-27 09:24:00,34.1,32.8,29.97,ESE,112,6.0,17.0,95,0.04,,,0.10,Weather View 32 v70,2013-01-27 15:24:00,
2013-01-27 09:29:00,34.2,32.9,29.97,SE,135,6.0,17.0,95,0.05,,,0.11,Weather View 32 v70,2013-01-27 15:29:00,
2013-01-27 09:35:00,34.2,32.9,29.97,ESE,112,7.0,16.0,95,0.05,,,0.11,Weather View 32 v70,2013-01-27 15:35:00,
2013-01-27 09:40:00,34.2,32.9,29.97,SE,135,6.0,16.0,95,0.04,,,0.11,Weather View 32 v70,2013-01-27 15:40:00,
2013-01-27 09:45:00,34.2,32.9,29.97,ESE,112,7.0,14.0,95,0.04,,,0.11,Weather View 32 v70,2013-01-27 15:45:00,
2013-01-27 09:50:00,34.2,32.9,29.96,East,90,12.0,14.0,95,0.03,,,0.11,Weather View 32 v70,2013-01-27 15:50:00,
2013-01-27 09:55:00,34.3,33.0,29.96,ESE,112,7.0,13.0,95,0.03,,,0.11,Weather View 32 v70,2013-01-27 15:55:00,
2013-01-27 10:00:00,34.3,33.0,29.96,ESE,112,7.0,13.0,95,0.03,,,0.11,Weather View 32 v70,2013-01-27 16:00:00,
2013-01-27 10:05:00,34.4,33.1,29.96,SE,135,8.0,14.0,95,0.02,,,0.11,Weather View 32 v70,2013-01-27 16:05:00,
2013-01-27 10:10:00,34.5,33.2,29.96,SE,135,9.0,14.0,95,0.01,,,0.11,Weather View 32 v70,2013-01-27 16:10:00,
2013-01-27 10:15:00,34.6,33.3,29.96,SE,135,7.0,14.0,95,0.01,,,0.11,Weather View 32 v70,2013-01-27 16:15:00,
2013-01-27 10:20:00,34.7,33.4,29.95,East,90,11.0,14.0,95,0.01,,,0.11,Weather View 32 v70,2013-01-27 16:20:00,
2013-01-27 10:25:00,34.8,33.5,29.95,ESE,112,12.0,14.0,95,0.02,,,0.12,Weather View 32 v70,2013-01-27 16:25:00,
2013-01-27 10:30:00,34.9,33.6,29.95,ESE,112,7.0,14.0,95,0.01,,,0.12,Weather View 32 v70,2013-01-27 16:30:00,
2013-01-27 10:35:00,34.9,33.6,29.96,SE,135,8.0,14.0,95,0.01,,,0.12,Weather View 32 v70,2013-01-27 16:35:00,
2013-01-27 10:40:00,35.1,33.8,29.96,ESE,112,5.0,14.0,95,0.01,,,0.12,Weather View 32 v70,2013-01-27 16:40:00,
2013-01-27 10:45:00,35.1,33.8,29.95,SE,135,5.0,14.0,95,0.01,,,0.12,Weather View 32 v70,2013-01-27 16:45:00,
2013-01-27 10:50:00,35.1,33.8,29.95,ESE,112,6.0,16.0,95,0.01,,,0.12,Weather View 32 v70,2013-01-27 16:50:00,
2013-01-27 10:55:00,35.2,33.9,29.95,SE,135,6.0,16.0,95,0.01,,,0.12,Weather View 32 v70,2013-01-27 16:55:00,
2013-01-27 11:00:00,35.2,33.9,29.95,ESE,112,9.0,16.0,95,0.01,,,0.12,Weather View 32 v70,2013-01-27 17:00:00,
2013-01-27 11:05:00,35.2,33.9,29.95,ESE,112,2.0,16.0,95,0.01,,,0.12,Weather View 32 v70,2013-01-27 17:05:00,
2013-01-27 11:10:00,35.2,33.9,29.95,ESE,112,6.0,16.0,95,0.01,,,0.12,Weather View 32 v70,2013-01-27 17:10:00,
2013-01-27 11:15:00,35.3,34.0,29.95,SE,135,7.0,16.0,95,0.01,,,0.12,Weather View 32 v70,2013-01-27 17:15:00,
2013-01-27 11:20:00,35.2,33.9,29.95,SE,135,7.0,16.0,95,0.01,,,0.12,Weather View 32 v70,2013-01-27 17:20:00,
2013-01-27 11:25:00,35.2,33.9,29.95,ESE,112,6.0,16.0,95,0.00,,,0.12,Weather View 32 v70,2013-01-27 17:25:00,
2013-01-27 11:30:00,35.1,33.8,29.94,SE,135,7.0,16.0,95,0.00,,,0.12,Weather View 32 v70,2013-01-27 17:30:00,
2013-01-27 11:35:00,35.1,33.8,29.94,ESE,112,4.0,16.0,95,0.00,,,0.12,Weather View 32 v70,2013-01-27 17:35:00,
2013-01-27 11:40:00,35.1,33.8,29.94,ESE,112,5.0,16.0,95,0.00,,,0.12,Weather View 32 v70,2013-01-27 17:40:00,
2013-01-27 11:45:00,35.1,33.8,29.94,ESE,112,3.0,16.0,95,0.00,,,0.12,Weather View 32 v70,2013-01-27 17:45:00,
2013-01-27 11:50:00,35.1,33.8,29.93,SE,135,7.0,14.0,95,0.00,,,0.12,Weather View 32 v70,2013-01-27 17:50:00,
2013-01-27 11:55:00,35.1,33.8,29.93,ESE,112,6.0,14.0,95,0.00,,,0.12,Weather View 32 v70,2013-01-27 17:55:00,
2013-01-27 12:00:00,35.1,33.8,29.94,ESE,112,7.0,14.0,95,0.00,,,0.12,Weather View 32 v70,2013-01-27 18:00:00,
2013-01-27 12:06:00,35.1,33.8,29.93,ESE,112,7.0,14.0,95,0.00,,,0.12,Weather View 32 v70,2013-01-27 18:06:00,
2013-01-27 12:11:00,35.2,33.9,29.93,ESE,112,10.0,14.0,95,0.00,,,0.12,Weather View 32 v70,2013-01-27 18:11:00,
2013-01-27 12:16:00,35.2,33.9,29.92,ESE,112,5.0,14.0,95,0.00,,,0.12,Weather View 32 v70,2013-01-27 18:16:00,
2013-01-27 12:21:00,35.2,33.9,29.92,ESE,112,7.0,13.0,95,0.00,,,0.12,Weather View 32 v70,2013-01-27 18:21:00,
2013-01-27 12:26:00,35.2,33.9,29.91,ESE,112,8.0,13.0,95,0.00,,,0.12,Weather View 32 v70,2013-01-27 18:26:00,
2013-01-27 12:31:00,35.2,33.9,29.91,SE,135,4.0,12.0,95,0.00,,,0.12,Weather View 32 v70,2013-01-27 18:31:00,
2013-01-27 12:36:00,35.3,34.0,29.90,ESE,112,5.0,12.0,95,0.00,,,0.12,Weather View 32 v70,2013-01-27 18:36:00,
2013-01-27 12:41:00,35.3,34.0,29.90,ESE,112,5.0,12.0,95,0.00,,,0.12,Weather View 32 v70,2013-01-27 18:41:00,
2013-01-27 12:46:00,35.3,34.0,29.90,SE,135,6.0,12.0,95,0.00,,,0.12,Weather View 32 v70,2013-01-27 18:46:00,
2013-01-27 12:51:00,35.4,34.1,29.90,East,90,6.0,12.0,95,0.00,,,0.12,Weather View 32 v70,2013-01-27 18:51:00,
2013-01-27 12:56:00,35.4,34.1,29.90,SE,135,5.0,12.0,95,0.00,,,0.12,Weather View 32 v70,2013-01-27 18:56:00,
2013-01-27 13:01:00,35.4,34.1,29.90,ESE,112,6.0,12.0,95,0.00,,,0.12,Weather View 32 v70,2013-01-27 19:01:00,
2013-01-27 13:06:00,35.5,34.2,29.90,ESE,112,3.0,12.0,95,0.00,,,0.12,Weather View 32 v70,2013-01-27 19:06:00,
2013-01-27 13:11:00,35.5,34.2,29.90,SE,135,7.0,12.0,95,0.00,,,0.12,Weather View 32 v70,2013-01-27 19:11:00,
2013-01-27 13:16:00,35.5,34.2,29.89,ESE,112,6.0,12.0,95,0.00,,,0.12,Weather View 32 v70,2013-01-27 19:16:00,
2013-01-27 13:21:00,35.5,34.2,29.89,ESE,112,7.0,12.0,95,0.00,,,0.12,Weather View 32 v70,2013-01-27 19:21:00,
2013-01-27 13:26:00,35.5,34.2,29.89,ESE,112,6.0,12.0,95,0.00,,,0.12,Weather View 32 v70,2013-01-27 19:26:00,
2013-01-27 13:31:00,35.5,34.2,29.88,ESE,112,7.0,12.0,95,0.00,,,0.12,Weather View 32 v70,2013-01-27 19:31:00,
2013-01-27 13:36:00,35.6,34.3,29.88,ESE,112,5.0,12.0,95,0.00,,,0.12,Weather View 32 v70,2013-01-27 19:36:00,
2013-01-27 13:41:00,35.6,34.3,29.88,ESE,112,9.0,12.0,95,0.00,,,0.12,Weather View 32 v70,2013-01-27 19:41:00,
2013-01-27 13:46:00,35.7,34.4,29.88,ESE,112,5.0,12.0,95,0.00,,,0.12,Weather View 32 v70,2013-01-27 19:46:00,
2013-01-27 13:51:00,35.7,34.4,29.88,ESE,112,2.0,12.0,95,0.00,,,0.12,Weather View 32 v70,2013-01-27 19:51:00,
2013-01-27 13:56:00,35.7,34.4,29.88,ESE,112,3.0,12.0,95,0.00,,,0.12,Weather View 32 v70,2013-01-27 19:56:00,
2013-01-27 14:01:00,35.7,34.4,29.87,ESE,112,2.0,12.0,95,0.00,,,0.12,Weather View 32 v70,2013-01-27 20:01:00,
2013-01-27 14:06:00,35.7,34.4,29.87,ESE,112,4.0,12.0,95,0.00,,,0.12,Weather View 32 v70,2013-01-27 20:06:00,
2013-01-27 14:11:00,35.8,34.5,29.87,ESE,112,3.0,11.0,95,0.00,,,0.12,Weather View 32 v70,2013-01-27 20:11:00,
2013-01-27 14:16:00,35.8,34.5,29.87,East,90,2.0,11.0,95,0.00,,,0.12,Weather View 32 v70,2013-01-27 20:16:00,
2013-01-27 14:21:00,35.8,34.5,29.87,ESE,112,7.0,11.0,95,0.00,,,0.12,Weather View 32 v70,2013-01-27 20:21:00,
2013-01-27 14:26:00,35.9,34.6,29.87,ESE,112,4.0,10.0,95,0.00,,,0.12,Weather View 32 v70,2013-01-27 20:26:00,
2013-01-27 14:31:00,35.9,34.6,29.87,East,90,6.0,10.0,95,0.00,,,0.12,Weather View 32 v70,2013-01-27 20:31:00,
2013-01-27 14:36:00,35.9,34.6,29.87,ESE,112,8.0,10.0,95,0.00,,,0.12,Weather View 32 v70,2013-01-27 20:36:00,
2013-01-27 14:41:00,35.9,34.6,29.87,ESE,112,3.0,11.0,95,0.00,,,0.12,Weather View 32 v70,2013-01-27 20:41:00,
2013-01-27 14:46:00,35.9,34.6,29.87,ESE,112,5.0,11.0,95,0.00,,,0.12,Weather View 32 v70,2013-01-27 20:46:00,
2013-01-27 14:51:00,35.9,34.6,29.87,ESE,112,4.0,11.0,95,0.00,,,0.12,Weather View 32 v70,2013-01-27 20:51:00,
2013-01-27 14:56:00,36.0,34.7,29.86,ESE,112,4.0,11.0,95,0.00,,,0.12,Weather View 32 v70,2013-01-27 20:56:00,
2013-01-27 15:01:00,36.2,34.9,29.86,East,90,4.0,11.0,95,0.00,,,0.12,Weather View 32 v70,2013-01-27 21:01:00,
2013-01-27 15:07:00,36.2,34.9,29.86,ESE,112,2.0,11.0,95,0.00,,,0.12,Weather View 32 v70,2013-01-27 21:07:00,
2013-01-27 15:12:00,36.2,34.9,29.86,ESE,112,1.0,11.0,95,0.00,,,0.12,Weather View 32 v70,2013-01-27 21:12:00,
2013-01-27 15:17:00,36.2,34.9,29.86,ESE,112,3.0,11.0,95,0.00,,,0.12,Weather View 32 v70,2013-01-27 21:17:00,
2013-01-27 15:22:00,36.2,34.9,29.86,ESE,112,4.0,11.0,95,0.00,,,0.12,Weather View 32 v70,2013-01-27 21:22:00,
2013-01-27 15:27:00,36.2,34.9,29.86,SE,135,4.0,11.0,95,0.00,,,0.12,Weather View 32 v70,2013-01-27 21:27:00,
2013-01-27 15:32:00,36.3,35.0,29.86,ESE,112,6.0,11.0,95,0.00,,,0.12,Weather View 32 v70,2013-01-27 21:32:00,
2013-01-27 15:37:00,36.3,35.0,29.87,ESE,112,2.0,11.0,95,0.00,,,0.12,Weather View 32 v70,2013-01-27 21:37:00,
2013-01-27 15:42:00,36.3,35.0,29.87,East,90,2.0,9.0,95,0.00,,,0.12,Weather View 32 v70,2013-01-27 21:42:00,
2013-01-27 15:47:00,36.3,35.0,29.87,ESE,112,2.0,9.0,95,0.00,,,0.12,Weather View 32 v70,2013-01-27 21:47:00,
2013-01-27 15:52:00,36.3,35.0,29.87,ESE,112,1.0,9.0,95,0.00,,,0.12,Weather View 32 v70,2013-01-27 21:52:00,
2013-01-27 15:57:00,36.4,35.1,29.87,ESE,112,2.0,9.0,95,0.00,,,0.12,Weather View 32 v70,2013-01-27 21:57:00,
2013-01-27 16:02:00,36.4,35.1,29.87,ESE,112,4.0,7.0,95,0.00,,,0.12,Weather View 32 v70,2013-01-27 22:02:00,
2013-01-27 16:07:00,36.4,35.1,29.87,ESE,112,2.0,7.0,95,0.00,,,0.12,Weather View 32 v70,2013-01-27 22:07:00,
2013-01-27 16:12:00,36.4,35.1,29.87,SE,135,4.0,7.0,95,0.00,,,0.12,Weather View 32 v70,2013-01-27 22:12:00,
2013-01-27 16:17:00,36.4,35.1,29.87,ESE,112,2.0,7.0,95,0.00,,,0.12,Weather View 32 v70,2013-01-27 22:17:00,
2013-01-27 16:22:00,36.4,35.1,29.87,ESE,112,5.0,7.0,95,0.00,,,0.12,Weather View 32 v70,2013-01-27 22:22:00,
2013-01-27 16:27:00,36.4,35.1,29.87,ESE,112,2.0,7.0,95,0.00,,,0.12,Weather View 32 v70,2013-01-27 22:27:00,
2013-01-27 16:32:00,36.5,35.2,29.87,ESE,112,2.0,7.0,95,0.00,,,0.12,Weather View 32 v70,2013-01-27 22:32:00,
2013-01-27 16:37:00,36.5,35.2,29.87,ESE,112,3.0,7.0,95,0.00,,,0.12,Weather View 32 v70,2013-01-27 22:37:00,
2013-01-27 16:42:00,36.5,35.2,29.87,SE,135,1.0,7.0,95,0.00,,,0.12,Weather View 32 v70,2013-01-27 22:42:00,
2013-01-27 16:47:00,36.5,35.2,29.87,SE,135,2.0,7.0,95,0.00,,,0.12,Weather View 32 v70,2013-01-27 22:47:00,
2013-01-27 16:52:00,36.5,35.2,29.87,SE,135,2.0,7.0,95,0.00,,,0.12,Weather View 32 v70,2013-01-27 22:52:00,
2013-01-27 16:57:00,36.5,35.2,29.87,SE,135,2.0,6.0,95,0.00,,,0.12,Weather View 32 v70,2013-01-27 22:57:00,
2013-01-27 17:02:00,36.4,35.1,29.87,SE,135,2.0,6.0,95,0.00,,,0.12,Weather View 32 v70,2013-01-27 23:02:00,
2013-01-27 17:07:00,36.4,35.1,29.88,SE,135,1.0,5.0,95,0.00,,,0.12,Weather View 32 v70,2013-01-27 23:07:00,
2013-01-27 17:12:00,36.4,35.1,29.88,SE,135,2.0,5.0,95,0.00,,,0.12,Weather View 32 v70,2013-01-27 23:12:00,
2013-01-27 17:17:00,36.4,35.1,29.88,SE,135,0.0,5.0,95,0.00,,,0.12,Weather View 32 v70,2013-01-27 23:17:00,
2013-01-27 17:22:00,36.4,35.1,29.88,SE,135,2.0,5.0,95,0.00,,,0.12,Weather View 32 v70,2013-01-27 23:22:00,
2013-01-27 17:27:00,36.4,35.1,29.88,SE,135,1.0,5.0,95,0.00,,,0.12,Weather View 32 v70,2013-01-27 23:27:00,
2013-01-27 17:32:00,36.3,35.0,29.88,SE,135,2.0,5.0,95,0.00,,,0.12,Weather View 32 v70,2013-01-27 23:32:00,
2013-01-27 17:38:00,36.3,35.0,29.88,SE,135,1.0,5.0,95,0.00,,,0.12,Weather View 32 v70,2013-01-27 23:38:00,
2013-01-27 17:43:00,36.3,35.0,29.88,SE,135,1.0,5.0,95,0.00,,,0.12,Weather View 32 v70,2013-01-27 23:43:00,
2013-01-27 17:48:00,36.3,35.0,29.88,SE,135,1.0,4.0,95,0.00,,,0.12,Weather View 32 v70,2013-01-27 23:48:00,
2013-01-27 17:53:00,36.3,35.0,29.88,SE,135,0.0,4.0,95,0.00,,,0.12,Weather View 32 v70,2013-01-27 23:53:00,
2013-01-27 17:58:00,36.2,34.9,29.88,SE,135,0.0,4.0,95,0.00,,,0.12,Weather View 32 v70,2013-01-27 23:58:00,
2013-01-27 18:03:00,36.0,34.7,29.88,SE,135,0.0,4.0,95,0.00,,,0.12,Weather View 32 v70,2013-01-28 00:03:00,
2013-01-27 18:08:00,36.0,34.7,29.88,SE,135,0.0,4.0,95,0.00,,,0.12,Weather View 32 v70,2013-01-28 00:08:00,
2013-01-27 18:13:00,35.9,34.6,29.88,SE,135,0.0,4.0,95,0.00,,,0.12,Weather View 32 v70,2013-01-28 00:13:00,
2013-01-27 18:18:00,35.9,34.6,29.89,SE,135,0.0,2.0,95,0.00,,,0.12,Weather View 32 v70,2013-01-28 00:18:00,
2013-01-27 18:23:00,35.9,34.6,29.89,SE,135,0.0,2.0,95,0.00,,,0.12,Weather View 32 v70,2013-01-28 00:23:00,
2013-01-27 18:28:00,35.9,34.6,29.90,SE,135,0.0,2.0,95,0.00,,,0.12,Weather View 32 v70,2013-01-28 00:28:00,
2013-01-27 18:33:00,35.9,34.6,29.90,SE,135,0.0,2.0,95,0.00,,,0.12,Weather View 32 v70,2013-01-28 00:33:00,
2013-01-27 18:38:00,35.8,34.5,29.90,SE,135,0.0,2.0,95,0.00,,,0.12,Weather View 32 v70,2013-01-28 00:38:00,
2013-01-27 18:43:00,35.6,34.3,29.90,SE,135,0.0,2.0,95,0.00,,,0.12,Weather View 32 v70,2013-01-28 00:43:00,
2013-01-27 18:48:00,35.6,34.3,29.90,SE,135,0.0,2.0,95,0.00,,,0.12,Weather View 32 v70,2013-01-28 00:48:00,
2013-01-27 18:53:00,35.7,34.4,29.90,SE,135,1.0,2.0,95,0.00,,,0.12,Weather View 32 v70,2013-01-28 00:53:00,
2013-01-27 18:58:00,35.7,34.4,29.90,SE,135,0.0,2.0,95,0.00,,,0.12,Weather View 32 v70,2013-01-28 00:58:00,
2013-01-27 19:03:00,35.7,34.4,29.90,SE,135,0.0,2.0,95,0.00,,,0.12,Weather View 32 v70,2013-01-28 01:03:00,
2013-01-27 19:08:00,35.4,34.1,29.91,SE,135,2.0,2.0,95,0.00,,,0.12,Weather View 32 v70,2013-01-28 01:08:00,
2013-01-27 19:13:00,35.7,34.4,29.90,SE,135,1.0,2.0,95,0.00,,,0.12,Weather View 32 v70,2013-01-28 01:13:00,
2013-01-27 19:18:00,35.7,34.4,29.90,SE,135,0.0,2.0,95,0.00,,,0.12,Weather View 32 v70,2013-01-28 01:18:00,
2013-01-27 19:23:00,35.5,34.2,29.91,SE,135,0.0,2.0,95,0.00,,,0.12,Weather View 32 v70,2013-01-28 01:23:00,
2013-01-27 19:28:00,35.3,34.0,29.91,SE,135,0.0,2.0,95,0.00,,,0.12,Weather View 32 v70,2013-01-28 01:28:00,
2013-01-27 19:33:00,35.3,34.0,29.91,SE,135,0.0,2.0,95,0.00,,,0.12,Weather View 32 v70,2013-01-28 01:33:00,
2013-01-27 19:38:00,35.3,34.0,29.91,SE,135,0.0,2.0,95,0.00,,,0.12,Weather View 32 v70,2013-01-28 01:38:00,
2013-01-27 19:43:00,35.3,34.0,29.91,SE,135,0.0,2.0,95,0.00,,,0.12,Weather View 32 v70,2013-01-28 01:43:00,
2013-01-27 19:48:00,35.3,34.0,29.90,SE,135,0.0,2.0,95,0.00,,,0.12,Weather View 32 v70,2013-01-28 01:48:00,
2013-01-27 19:53:00,35.1,33.8,29.90,SE,135,0.0,2.0,95,0.00,,,0.12,Weather View 32 v70,2013-01-28 01:53:00,
2013-01-27 19:58:00,34.9,33.6,29.90,SE,135,0.0,2.0,95,0.00,,,0.12,Weather View 32 v70,2013-01-28 01:58:00,
2013-01-27 20:03:00,34.9,33.6,29.90,SE,135,1.0,2.0,95,0.00,,,0.12,Weather View 32 v70,2013-01-28 02:03:00,
2013-01-27 20:08:00,34.9,33.6,29.90,SE,135,2.0,2.0,95,0.00,,,0.12,Weather View 32 v70,2013-01-28 02:08:00,
2013-01-27 20:13:00,34.9,33.6,29.90,SE,135,1.0,2.0,95,0.00,,,0.12,Weather View 32 v70,2013-01-28 02:13:00,
2013-01-27 20:18:00,34.9,33.6,29.90,SE,135,2.0,2.0,95,0.00,,,0.12,Weather View 32 v70,2013-01-28 02:18:00,
2013-01-27 20:23:00,34.8,33.5,29.90,SE,135,2.0,2.0,95,0.00,,,0.12,Weather View 32 v70,2013-01-28 02:23:00,
2013-01-27 20:28:00,34.8,33.5,29.90,SE,135,1.0,2.0,95,0.00,,,0.12,Weather View 32 v70,2013-01-28 02:28:00,
2013-01-27 20:33:00,34.7,33.4,29.91,SE,135,0.0,2.0,95,0.00,,,0.12,Weather View 32 v70,2013-01-28 02:33:00,
2013-01-27 20:39:00,34.4,33.1,29.91,SE,135,0.0,2.0,95,0.00,,,0.12,Weather View 32 v70,2013-01-28 02:39:00,
2013-01-27 20:44:00,34.3,33.0,29.92,SE,135,0.0,2.0,95,0.00,,,0.12,Weather View 32 v70,2013-01-28 02:44:00,
2013-01-27 20:49:00,34.3,33.0,29.92,SE,135,0.0,2.0,95,0.00,,,0.12,Weather View 32 v70,2013-01-28 02:49:00,
2013-01-27 20:54:00,34.3,33.0,29.92,SE,135,0.0,2.0,95,0.00,,,0.12,Weather View 32 v70,2013-01-28 02:54:00,
2013-01-27 20:59:00,34.3,33.0,29.92,SE,135,0.0,2.0,95,0.00,,,0.12,Weather View 32 v70,2013-01-28 02:59:00,
2013-01-27 21:04:00,34.4,33.1,29.92,SE,135,1.0,2.0,95,0.00,,,0.12,Weather View 32 v70,2013-01-28 03:04:00,
2013-01-27 21:09:00,34.4,33.1,29.92,SE,135,1.0,2.0,95,0.00,,,0.12,Weather View 32 v70,2013-01-28 03:09:00,
2013-01-27 21:14:00,34.3,33.0,29.92,SE,135,0.0,2.0,95,0.00,,,0.12,Weather View 32 v70,2013-01-28 03:14:00,
2013-01-27 21:19:00,34.1,32.8,29.92,SE,135,0.0,2.0,95,0.00,,,0.12,Weather View 32 v70,2013-01-28 03:19:00,
2013-01-27 21:24:00,34.1,32.8,29.92,SE,135,0.0,2.0,95,0.00,,,0.12,Weather View 32 v70,2013-01-28 03:24:00,
2013-01-27 21:29:00,34.3,33.0,29.92,SE,135,0.0,2.0,95,0.00,,,0.12,Weather View 32 v70,2013-01-28 03:29:00,
2013-01-27 21:34:00,34.3,33.0,29.92,SE,135,0.0,2.0,95,0.00,,,0.12,Weather View 32 v70,2013-01-28 03:34:00,
2013-01-27 21:39:00,34.1,32.8,29.92,SE,135,0.0,2.0,95,0.00,,,0.12,Weather View 32 v70,2013-01-28 03:39:00,
2013-01-27 21:44:00,33.9,32.6,29.92,SE,135,0.0,2.0,95,0.00,,,0.12,Weather View 32 v70,2013-01-28 03:44:00,
2013-01-27 21:49:00,33.9,32.6,29.92,SE,135,0.0,2.0,95,0.00,,,0.12,Weather View 32 v70,2013-01-28 03:49:00,
2013-01-27 21:54:00,33.8,32.5,29.92,SE,135,0.0,2.0,95,0.00,,,0.12,Weather View 32 v70,2013-01-28 03:54:00,
2013-01-27 21:59:00,33.9,32.6,29.92,SE,135,0.0,2.0,95,0.00,,,0.12,Weather View 32 v70,2013-01-28 03:59:00,
2013-01-27 22:04:00,33.8,32.5,29.92,SE,135,1.0,2.0,95,0.00,,,0.12,Weather View 32 v70,2013-01-28 04:04:00,
2013-01-27 22:09:00,33.7,32.4,29.92,SE,135,0.0,1.0,95,0.00,,,0.12,Weather View 32 v70,2013-01-28 04:09:00,
2013-01-27 22:14:00,33.7,32.4,29.92,SE,135,0.0,1.0,95,0.00,,,0.12,Weather View 32 v70,2013-01-28 04:14:00,
2013-01-27 22:19:00,33.6,32.3,29.92,SE,135,0.0,1.0,95,0.00,,,0.12,Weather View 32 v70,2013-01-28 04:19:00,
2013-01-27 22:24:00,33.6,32.3,29.92,SE,135,0.0,1.0,95,0.00,,,0.12,Weather View 32 v70,2013-01-28 04:24:00,
2013-01-27 22:29:00,33.6,32.3,29.92,SE,135,1.0,1.0,95,0.00,,,0.12,Weather View 32 v70,2013-01-28 04:29:00,
2013-01-27 22:34:00,33.7,32.4,29.92,SE,135,0.0,2.0,95,0.00,,,0.12,Weather View 32 v70,2013-01-28 04:34:00,
2013-01-27 22:39:00,33.6,32.3,29.92,SE,135,0.0,2.0,95,0.00,,,0.12,Weather View 32 v70,2013-01-28 04:39:00,
2013-01-27 22:44:00,33.6,32.3,29.92,SE,135,0.0,2.0,95,0.00,,,0.12,Weather View 32 v70,2013-01-28 04:44:00,
2013-01-27 22:49:00,33.5,32.2,29.92,SE,135,0.0,2.0,95,0.00,,,0.12,Weather View 32 v70,2013-01-28 04:49:00,
2013-01-27 22:54:00,33.5,32.2,29.92,SE,135,0.0,2.0,95,0.00,,,0.12,Weather View 32 v70,2013-01-28 04:54:00,
2013-01-27 22:59:00,33.6,32.3,29.93,SE,135,1.0,2.0,95,0.00,,,0.12,Weather View 32 v70,2013-01-28 04:59:00,
2013-01-27 23:00:00,33.6,32.3,29.93,SE,135,1.0,2.0,95,0.00,,,0.12,Weather View 32 v70,2013-01-28 05:00:00,
2013-01-27 23:05:00,33.6,32.3,29.93,SE,135,0.0,2.0,95,0.00,,,0.12,Weather View 32 v70,2013-01-28 05:05:00,
2013-01-27 23:10:00,33.7,32.4,29.93,SE,135,1.0,2.0,95,0.00,,,0.12,Weather View 32 v70,2013-01-28 05:10:00,
2013-01-27 23:15:00,33.9,32.6,29.93,SE,135,1.0,2.0,95,0.00,,,0.12,Weather View 32 v70,2013-01-28 05:15:00,
2013-01-27 23:20:00,34.1,32.8,29.93,SE,135,2.0,2.0,95,0.00,,,0.12,Weather View 32 v70,2013-01-28 05:20:00,
2013-01-27 23:25:00,34.2,32.9,29.93,SE,135,2.0,3.0,95,0.00,,,0.12,Weather View 32 v70,2013-01-28 05:25:00,
2013-01-27 23:30:00,34.3,33.0,29.94,SE,135,1.0,3.0,95,0.00,,,0.12,Weather View 32 v70,2013-01-28 05:30:00,
2013-01-27 23:35:00,34.3,33.0,29.94,SE,135,1.0,3.0,95,0.00,,,0.12,Weather View 32 v70,2013-01-28 05:35:00,
2013-01-27 23:40:00,34.3,33.0,29.94,SE,135,2.0,3.0,95,0.00,,,0.12,Weather View 32 v70,2013-01-28 05:40:00,
2013-01-27 23:45:00,34.3,33.0,29.94,SE,135,2.0,3.0,95,0.00,,,0.12,Weather View 32 v70,2013-01-28 05:45:00,
2013-01-27 23:50:00,34.3,33.0,29.94,ESE,112,1.0,3.0,95,0.00,,,0.12,Weather View 32 v70,2013-01-28 05:50:00,
2013-01-27 23:55:00,34.4,33.1,29.94,ESE,112,2.0,3.0,95,0.00,,,0.12,Weather View 32 v70,2013-01-28 05:55:00,